Weather Roundup
Issued by NWS Corpus Christi, TX

Home | Current Version | Previous Version | Text Only | Print | Product List | Glossary On
Versions: 1 2 3 4 5 6 7 8 9 10 11 12 13 14 15 16 17 18 19 20 21 22 23 24 25 26 27 28 29 30 31 32 33 34 35 36 37 38 39 40 41 42 43 44 45 46 47 48 49 50
000
ASUS44 KCRP 181610
HRRCRP

SOUTH TEXAS REGIONAL WEATHER ROUNDUP
NATIONAL WEATHER SERVICE CORPUS CHRISTI TX
1100 AM CDT THU SEP 18 2014


TXZ229>244-181700-
...CORPUS CHRISTI AREA OBSERVATIONS...

CITY           SKY/WX    TMP DP  RH WIND       PRES   REMARKS
CORPUS CHRISTI CLOUDY    86  76  71 S14       29.88S HX  96
NAS CORPUS CHR PTSUNNY   87  78  74 S13G21    29.88S HX 100
ROCKPORT       PTSUNNY   85  75  72 S8G24     29.87F HX  93
KINGSVILLE NAS CLOUDY    87  78  74 S14       29.88S HX 100
ALICE          PTSUNNY   85  77  77 S13       29.88S HX  95
FALFURRIAS     MOSUNNY  N/A N/A N/A S13       29.88R
$$

...VICTORIA AREA OBSERVATIONS...

CITY           SKY/WX    TMP DP  RH WIND       PRES   REMARKS
VICTORIA       CLOUDY    85  79  82 S6        29.89R HX  98
BEEVILLE       FAIR      85  74  70 S16       29.87F HX  93
PLEASANTON     MOSUNNY   87  72  59 S10       29.88S HX  93
SAN ANTONIO    PTSUNNY   84  72  67 MISG      29.90R
$$

...LAREDO AREA OBSERVATIONS...

CITY           SKY/WX    TMP DP  RH WIND       PRES   REMARKS
LAREDO         PTSUNNY   85  74  69 S17       29.90S HX  92
COTULLA        MOSUNNY   85  72  65 S10G18    29.87F HX  91
DEL RIO        CLOUDY    79  72  79 SE10      29.88S
MCALLEN        MOSUNNY   84  75  74 S14       29.87F HX  92
HEBBRONVILLE     N/A     83  74  74 SE10G16   29.90F
$$

...OTHER TEXAS OBSERVATIONS...

CITY           SKY/WX    TMP DP  RH WIND       PRES   REMARKS
BROWNSVILLE    MOSUNNY   89  77  67 SE17      29.88S HX 101
HOUSTON        TSTM      75  74  96 SE9       29.92S
COL. STATION   PTSUNNY   77  74  90 E7        29.90S
AUSTIN         CLOUDY    80  72  76 NW5       29.91R
WACO           PTSUNNY   80  75  84 SE7       29.91S
FORT WORTH     PTSUNNY   82  72  71 E7        29.93F
WICHITA FALLS  CLOUDY    76  72  87 E10       29.94S
LUBBOCK        LGT RAIN  64  62  93 E14       30.03S
EL PASO        LGT RAIN  66  64  93 NW12      30.00R
$$

...MARINE OBSERVATIONS...

STATION/POSITION TIME  SKY/WX   TEMP    WIND        PRES    VSBY  WAVE   SWELL
                                AIR SEA DIR/SP/G                  HT/PER HT/PER
                 (UTC)          (F)     (DEG/KT/KT) (MB)    (MI)  (FT/S) (FT/S)
PORT ARANSAS     1600            84 84  170/ 13/ 15 1012.3F
BUOY 90 E PORT A 1600            84 85  190/ 10/ 12 1012.7S         2/ 4   2/ 6
BUOY 45 SE BAFFI 1600            84 84  170/ 12/ 14 1011.5S         3/ 5   2/ 6
BUOY 200 E PT IS 1600            85 86  180/ 10/ 12 1013.1R         2/ 4   2/ 5
BUOY 15 E GALVES 1600            81 84  140/  4/  6 1012.6R         1/ 6   2/ 6
$$


USA.gov is the U.S. government's official web portal to all federal, state and local government web resources and services.